Weather History for KHOT - May, 2013

Change the Weather History Date:

Wednesday, May 29, 2013

  Actual Average Record
Temperature  
Mean Temperature 76 °F -  
Max Temperature 84 °F 83 °F 97 °F (2012)
Min Temperature 71 °F 61 °F 48 °F (1984)
Cooling Degree Days 12    
Growing Degree Days 26 (Base 50)    
Moisture  
Dew Point 66 °F    
Average Humidity 72    
Maximum Humidity 84    
Minimum Humidity 54    
Precipitation  
Precipitation 0.00 in - - ()
Sea Level Pressure  
Sea Level Pressure 29.92 in    
Wind  
Wind Speed 7 mph (SSE)    
Max Wind Speed 10 mph    
Max Gust Speed 20 mph    
Visibility 10 miles    
Events      
Averages and records for this station are not official NWS values.
T = Trace of Precipitation, MM = Missing Value Source: NWS Daily Summary

Daily Weather History Graph

Daily Weather History Graph

Search for Another Location

Airport or City:

Trip Planner

Search our weather history database for the weather conditions in past years. The results will help you decide how hot, cold, wet, or windy it might be!

Date:

Astronomy

May. 29, 2013 Rise Set
Actual Time 6:01 AM CDT 8:18 PM CDT
Civil Twilight 5:33 AM CDT 8:46 PM CDT
Nautical Twilight 4:57 AM CDT 9:22 PM CDT
Astronomical Twilight 4:19 AM CDT 10:00 PM CDT
Moon No Moon Rise 10:55 AM CDT (5/29)
Length of Visible Light 15h 13m
Length of Day
14h 16m
Waning Gibbous, 73% of the Moon is Illuminated
May 29
Waning Gibbous
May 31
Last Quarter
Jun 8
New
Jun 16
First Quarter
Jun 23
Full

Hourly Weather History & Observations

Time (CDT) Temp. Heat Index Dew Point Humidity Pressure Visibility Wind Dir Wind Speed Gust Speed Precip Events Conditions
12:53 AM 75.0 °F - 66.0 °F 73% 29.92 in 10.0 mi SSE 6.9 mph - N/A   Overcast
1:53 AM 73.9 °F - 66.0 °F 76% 29.92 in 10.0 mi South 3.5 mph - N/A   Mostly Cloudy
2:53 AM 73.0 °F - 66.0 °F 79% 29.92 in 10.0 mi SSE 6.9 mph - N/A   Clear
3:53 AM 72.0 °F - 66.0 °F 81% 29.91 in 10.0 mi SE 5.8 mph - N/A   Clear
4:39 AM 71.6 °F - 66.2 °F 83% 29.95 in 10.0 mi South 6.9 mph - N/A   Mostly Cloudy
4:53 AM 72.0 °F - 66.0 °F 81% 29.94 in 10.0 mi South 4.6 mph - N/A   Overcast
5:53 AM 71.1 °F - 66.0 °F 84% 29.95 in 10.0 mi SSE 6.9 mph - N/A   Mostly Cloudy
6:40 AM 71.6 °F - 66.2 °F 83% 29.98 in 10.0 mi South 5.8 mph - N/A   Scattered Clouds
6:53 AM 72.0 °F - 66.0 °F 81% 29.96 in 10.0 mi South 5.8 mph - N/A   Partly Cloudy
7:15 AM 71.6 °F - 66.2 °F 83% 29.98 in 10.0 mi SSE 9.2 mph - N/A   Mostly Cloudy
7:28 AM 71.6 °F - 66.2 °F 83% 29.98 in 10.0 mi SSE 9.2 mph - N/A   Overcast
7:53 AM 72.0 °F - 66.9 °F 84% 29.96 in 10.0 mi South 6.9 mph - N/A   Overcast
8:48 AM 73.4 °F - 68.0 °F 83% 29.98 in 10.0 mi South 6.9 mph 17.3 mph N/A   Mostly Cloudy
8:53 AM 75.0 °F - 68.0 °F 79% 29.96 in 10.0 mi SSE 6.9 mph - N/A   Mostly Cloudy
9:53 AM 75.9 °F - 68.0 °F 76% 29.96 in 10.0 mi SSE 8.1 mph 16.1 mph N/A   Overcast
10:32 AM 77.0 °F - 68.0 °F 74% 29.97 in 10.0 mi SSE 6.9 mph - N/A   Mostly Cloudy
10:53 AM 79.0 °F - 68.0 °F 69% 29.95 in 10.0 mi South 8.1 mph - N/A   Mostly Cloudy
11:53 AM 80.1 °F 82.1 °F 66.0 °F 62% 29.95 in 10.0 mi South 9.2 mph - N/A   Scattered Clouds
12:53 PM 82.0 °F 84.5 °F 66.9 °F 60% 29.93 in 10.0 mi South 5.8 mph - N/A   Scattered Clouds
1:53 PM 82.0 °F 84.1 °F 66.0 °F 58% 29.92 in 10.0 mi South 8.1 mph - N/A   Scattered Clouds
2:53 PM 82.9 °F 85.4 °F 66.9 °F 58% 29.91 in 10.0 mi South 8.1 mph - N/A   Clear
3:53 PM 82.9 °F 84.6 °F 64.9 °F 54% 29.88 in 10.0 mi SSE 10.4 mph - N/A   Clear
4:53 PM 82.9 °F 85.0 °F 66.0 °F 56% 29.86 in 10.0 mi South 9.2 mph - N/A   Partly Cloudy
5:53 PM 82.9 °F 84.6 °F 64.9 °F 54% 29.84 in 10.0 mi SSE 9.2 mph 19.6 mph N/A   Clear
6:53 PM 82.0 °F 83.8 °F 64.9 °F 56% 29.83 in 10.0 mi SSE 8.1 mph - N/A   Clear
7:53 PM 80.1 °F 81.9 °F 64.9 °F 60% 29.84 in 10.0 mi SSE 5.8 mph - N/A   Clear
8:53 PM 79.0 °F - 64.9 °F 62% 29.86 in 10.0 mi South 4.6 mph - N/A   Clear
9:53 PM 78.1 °F - 66.0 °F 66% 29.87 in 10.0 mi SE 4.6 mph - N/A   Partly Cloudy
10:53 PM 77.0 °F - 66.0 °F 69% 29.88 in 10.0 mi SE 5.8 mph - N/A   Scattered Clouds
11:53 PM 75.9 °F - 69.1 °F 79% 29.88 in 10.0 mi SE 5.8 mph - N/A   Scattered Clouds